Location: Piolenc
(44.1794°N, 4.7641°E)
Time: 01:59:59
(UTC+00:00)

MOS 1-B - Pass Details

Date: 27 January 2021
Orbit: 905 x 914 km, 99.4° (Epoch: 27 February)

Event Time Altitude Azimuth Distance (km) Brightness Sun altitude
Rises 06:10:12 0° 13° (NNE) 3,542 7.4 -9.8°
Reaches altitude 10° 06:12:37 10° 12° (NNE) 2,596 6.7 -9.4°
Maximum altitude 06:18:23 75° 288° (WNW) 938 4.3 -8.4°
Drops below altitude 10° 06:24:07 10° 204° (SSW) 2,580 6.7 -7.5°
Sets 06:26:31 0° 202° (SSW) 3,517 7.4 -7.0°
